Hourly Data Report for September 17, 2017

All times are specified in Local Standard Time (LST). Add 1 hour to adjust for Daylight Saving Time where and when it is observed.

CORAL HARBOUR A
NUNAVUT

64°11'36.000" N
83°21'34.000" W
62.20 m
2301002
71915
YZS

Download Data

Hourly Data (September 2017)
Hourly Data Report for September 17, 2017
Temp Definition
°C
Dew Point Temp Definition
°C
Rel Hum Definition
%
Wind Dir Definition
10's deg

Wind Spd Definition
km/h
Visibility Definition
km
Stn Press Definition
kPa
Hmdx Definition


Wind Chill Definition


Weather Definition


TIME
00:00 Legend Double Dagger 0.2 -1.0 92 3 10 24.1 101.28     LegendNANA
01:00 Legend Double Dagger -1.0 -2.0 93 32 13 24.1 101.30   -5 Clear
02:00 Legend Double Dagger -0.1 -1.3 92 3 20 24.1 101.31   -5 LegendNANA
03:00 Legend Double Dagger -0.5 -1.5 93 3 14 24.1 101.36   -5 LegendNANA
04:00 Legend Double Dagger -0.1 -1.4 91 4 20 24.1 101.37   -5 Clear
05:00 Legend Double Dagger 0.4 -0.9 91 5 27 24.1 101.39     LegendNANA
06:00 Legend Double Dagger -2.0 -2.6 95 30 8 24.1 101.44   -5 LegendNANA
07:00 Legend Double Dagger -1.1 -2.2 93 3 16 24.1 101.48   -6 Mainly Clear
08:00 Legend Double Dagger 1.1 -0.2 91 5 14 24.1 101.47     LegendNANA
09:00 Legend Double Dagger 2.9 1.1 88 6 7 24.1 101.49     LegendNANA
10:00 Legend Double Dagger 4.2 2.1 86 15 8 24.1 101.48     Mainly Clear
11:00 Legend Double Dagger 5.3 3.0 85 17 20 24.1 101.46     LegendNANA
12:00 Legend Double Dagger 5.9 3.8 86 18 20 24.1 101.46     LegendNANA
13:00 Legend Double Dagger 5.2 3.6 89 19 22 24.1 101.50     Mostly Cloudy
14:00 Legend Double Dagger 5.6 3.9 89 18 18 24.1 101.47     LegendNANA
15:00 Legend Double Dagger 6.9 4.8 87 18 20 24.1 101.45     LegendNANA
16:00 Legend Double Dagger 8.1 4.5 78 20 23 24.1 101.43     Clear
17:00 Legend Double Dagger 6.6 5.0 89 16 23 24.1 101.40     LegendNANA
18:00 Legend Double Dagger 6.7 4.6 86 23 7 24.1 101.39     LegendNANA
19:00 Legend Double Dagger 4.5 3.5 93 31 7 24.1 101.40     Clear
20:00 Legend Double Dagger 3.8 2.8 93 17 13 24.1 101.41     LegendNANA
21:00 Legend Double Dagger 3.1 2.6 97 30 7 24.1 101.40     LegendNANA
22:00 Legend Double Dagger 2.2 1.6 96 3 12 24.1 101.38     Clear
23:00 Legend Double Dagger -0.4 -0.8 97 17 7 24.1 101.38   -3 LegendNANA

Notes on Data Quality.

Legend

  • E = Estimated
  • M = Missing
  • NA = Not Available
  • ‡ = Partner data that is not subject to review by the National Climate Archives
Date modified: